Time,TemperatureF,DewpointF,PressureIn,WindDirection,WindDirectionDegrees,WindSpeedMPH,WindSpeedGustMPH,Humidity,HourlyPrecipIn,Conditions,Clouds,dailyrainin,SoftwareType,DateUTC
2013-09-12 00:01:00,73.6,71.1,30.01,SW,224,0.0,0.0,92,0.00,,,0.00,meteobridge,2013-09-12 04:01:00,
2013-09-12 00:06:00,73.2,71.1,30.01,SW,224,0.0,0.0,93,0.00,,,0.00,meteobridge,2013-09-12 04:06:00,
2013-09-12 00:11:00,73.2,71.1,30.01,SW,224,0.0,0.0,93,0.00,,,0.00,meteobridge,2013-09-12 04:11:00,
2013-09-12 00:16:00,73.2,71.1,30.01,SW,224,0.0,0.0,93,0.00,,,0.00,meteobridge,2013-09-12 04:16:00,
2013-09-12 00:21:00,73.2,71.1,30.01,SW,224,0.0,0.0,93,0.00,,,0.00,meteobridge,2013-09-12 04:21:00,
2013-09-12 00:26:00,73.0,70.9,30.01,SW,224,0.0,0.0,93,0.00,,,0.00,meteobridge,2013-09-12 04:26:00,
2013-09-12 00:32:00,73.0,70.9,30.01,SW,224,0.0,0.0,93,0.00,,,0.00,meteobridge,2013-09-12 04:32:00,
2013-09-12 00:37:00,72.9,71.1,30.01,SW,224,0.0,0.0,94,0.00,,,0.00,meteobridge,2013-09-12 04:37:00,
2013-09-12 00:42:00,72.7,70.9,30.01,SW,224,0.0,0.0,94,0.00,,,0.00,meteobridge,2013-09-12 04:42:00,
2013-09-12 00:47:00,72.9,71.1,30.00,SW,224,0.0,0.0,94,0.00,,,0.00,meteobridge,2013-09-12 04:47:00,
2013-09-12 00:52:00,72.9,71.1,30.00,SW,224,0.0,0.0,94,0.00,,,0.00,meteobridge,2013-09-12 04:52:00,
2013-09-12 00:57:00,72.7,70.9,30.00,SW,224,0.0,0.0,94,0.00,,,0.00,meteobridge,2013-09-12 04:57:00,
2013-09-12 01:03:00,72.5,71.1,29.99,SW,224,0.0,0.0,95,0.00,,,0.00,meteobridge,2013-09-12 05:03:00,
2013-09-12 01:08:00,72.3,70.9,29.99,SW,224,0.0,0.0,95,0.00,,,0.00,meteobridge,2013-09-12 05:08:00,
2013-09-12 01:13:00,72.1,70.7,29.99,SW,224,0.0,0.0,95,0.00,,,0.00,meteobridge,2013-09-12 05:13:00,
2013-09-12 01:18:00,72.0,70.5,29.99,SW,224,0.0,0.0,95,0.00,,,0.00,meteobridge,2013-09-12 05:18:00,
2013-09-12 01:23:00,71.8,70.3,29.99,SW,224,0.0,0.0,95,0.00,,,0.00,meteobridge,2013-09-12 05:23:00,
2013-09-12 01:28:00,71.8,70.3,29.99,SW,224,0.0,0.0,95,0.00,,,0.00,meteobridge,2013-09-12 05:28:00,
2013-09-12 01:34:00,71.8,70.3,29.98,SW,224,0.0,0.0,95,0.00,,,0.00,meteobridge,2013-09-12 05:34:00,
2013-09-12 01:39:00,71.8,70.3,29.98,SW,224,0.0,0.0,95,0.00,,,0.00,meteobridge,2013-09-12 05:39:00,
2013-09-12 01:44:00,71.6,70.2,29.98,SW,224,0.0,0.0,95,0.00,,,0.00,meteobridge,2013-09-12 05:44:00,
2013-09-12 01:49:00,71.6,70.3,29.98,SW,224,0.0,0.0,96,0.00,,,0.00,meteobridge,2013-09-12 05:49:00,
2013-09-12 01:54:00,71.4,70.2,29.98,SW,224,0.0,0.0,96,0.00,,,0.00,meteobridge,2013-09-12 05:54:00,
2013-09-12 01:59:00,71.2,70.0,29.98,SW,224,0.0,0.0,96,0.00,,,0.00,meteobridge,2013-09-12 05:59:00,
2013-09-12 02:05:00,71.2,70.0,29.98,SW,224,0.0,0.0,96,0.00,,,0.00,meteobridge,2013-09-12 06:05:00,
2013-09-12 02:10:00,71.1,69.8,29.98,SW,224,0.0,0.0,96,0.00,,,0.00,meteobridge,2013-09-12 06:10:00,
2013-09-12 02:15:00,71.1,69.8,29.98,SW,224,0.0,0.0,96,0.00,,,0.00,meteobridge,2013-09-12 06:15:00,
2013-09-12 02:20:00,71.1,69.8,29.98,SW,224,0.0,0.0,96,0.00,,,0.00,meteobridge,2013-09-12 06:20:00,
2013-09-12 02:25:00,70.9,69.6,29.98,SW,224,0.0,0.0,96,0.00,,,0.00,meteobridge,2013-09-12 06:25:00,
2013-09-12 02:30:00,70.9,69.6,29.98,SW,224,0.0,0.0,96,0.00,,,0.00,meteobridge,2013-09-12 06:30:00,
2013-09-12 02:35:00,70.9,69.6,29.98,SW,224,0.0,0.0,96,0.00,,,0.00,meteobridge,2013-09-12 06:35:00,
2013-09-12 02:41:00,70.9,70.0,29.98,SW,224,0.0,0.0,97,0.00,,,0.00,meteobridge,2013-09-12 06:41:00,
2013-09-12 02:46:00,70.9,70.0,29.98,SW,224,0.0,0.0,97,0.00,,,0.00,meteobridge,2013-09-12 06:46:00,
2013-09-12 02:51:00,70.9,70.0,29.98,SW,224,0.0,0.0,97,0.00,,,0.00,meteobridge,2013-09-12 06:51:00,
2013-09-12 02:56:00,70.9,70.0,29.98,SW,224,0.0,0.0,97,0.00,,,0.00,meteobridge,2013-09-12 06:56:00,
2013-09-12 03:01:00,70.9,70.0,29.98,SW,224,0.0,0.0,97,0.00,,,0.00,meteobridge,2013-09-12 07:01:00,
2013-09-12 03:06:00,70.9,70.0,29.98,SW,224,0.0,0.0,97,0.00,,,0.00,meteobridge,2013-09-12 07:06:00,
2013-09-12 03:12:00,70.9,70.0,29.98,SW,224,0.0,0.0,97,0.00,,,0.00,meteobridge,2013-09-12 07:12:00,
2013-09-12 03:17:00,70.9,70.0,29.98,SW,224,0.0,0.0,97,0.00,,,0.00,meteobridge,2013-09-12 07:17:00,
2013-09-12 03:22:00,70.9,70.0,29.98,SW,224,0.0,0.0,97,0.00,,,0.00,meteobridge,2013-09-12 07:22:00,
2013-09-12 03:27:00,70.9,70.0,29.98,SW,224,0.0,0.0,97,0.00,,,0.00,meteobridge,2013-09-12 07:27:00,
2013-09-12 03:32:00,70.9,70.0,29.98,SW,224,0.0,0.0,97,0.00,,,0.00,meteobridge,2013-09-12 07:32:00,
2013-09-12 03:38:00,70.5,69.6,29.98,SW,224,0.0,0.0,97,0.00,,,0.00,meteobridge,2013-09-12 07:38:00,
2013-09-12 03:43:00,70.5,69.6,29.98,SW,224,0.0,0.0,97,0.00,,,0.00,meteobridge,2013-09-12 07:43:00,
2013-09-12 03:48:00,70.3,69.4,29.98,SW,224,0.0,0.0,97,0.00,,,0.00,meteobridge,2013-09-12 07:48:00,
2013-09-12 03:53:00,70.3,69.4,29.98,SW,224,0.0,0.0,97,0.00,,,0.00,meteobridge,2013-09-12 07:53:00,
2013-09-12 03:58:00,70.3,69.4,29.98,SW,224,0.0,0.0,97,0.00,,,0.00,meteobridge,2013-09-12 07:58:00,
2013-09-12 04:04:00,70.2,69.3,29.98,SW,224,0.0,0.0,97,0.00,,,0.00,meteobridge,2013-09-12 08:04:00,
2013-09-12 04:09:00,70.3,69.4,29.98,SW,224,0.0,0.0,97,0.00,,,0.00,meteobridge,2013-09-12 08:09:00,
2013-09-12 04:14:00,70.2,69.3,29.97,SW,224,0.0,0.0,97,0.00,,,0.00,meteobridge,2013-09-12 08:14:00,
2013-09-12 04:19:00,70.3,69.8,29.97,SW,224,0.0,0.0,98,0.00,,,0.00,meteobridge,2013-09-12 08:19:00,
2013-09-12 04:24:00,70.3,69.8,29.97,SW,224,0.0,0.0,98,0.00,,,0.00,meteobridge,2013-09-12 08:24:00,
2013-09-12 04:30:00,70.3,69.8,29.97,SW,224,0.0,2.0,98,0.00,,,0.00,meteobridge,2013-09-12 08:30:00,
2013-09-12 04:35:00,70.3,69.4,29.97,SW,224,0.0,0.0,97,0.00,,,0.00,meteobridge,2013-09-12 08:35:00,
2013-09-12 04:40:00,70.3,69.8,29.97,SW,224,0.0,0.0,98,0.00,,,0.00,meteobridge,2013-09-12 08:40:00,
2013-09-12 04:45:00,70.3,69.8,29.97,SW,224,0.0,0.0,98,0.00,,,0.00,meteobridge,2013-09-12 08:45:00,
2013-09-12 04:50:00,70.3,69.8,29.97,SW,224,0.0,0.0,98,0.00,,,0.00,meteobridge,2013-09-12 08:50:00,
2013-09-12 04:55:00,70.2,69.3,29.97,SW,224,0.0,0.0,97,0.00,,,0.00,meteobridge,2013-09-12 08:55:00,
2013-09-12 05:01:00,70.2,69.3,29.97,SW,224,0.0,0.0,97,0.00,,,0.00,meteobridge,2013-09-12 09:01:00,
2013-09-12 05:06:00,70.0,69.1,29.97,SW,224,0.0,0.0,97,0.00,,,0.00,meteobridge,2013-09-12 09:06:00,
2013-09-12 05:11:00,70.0,69.4,29.97,SW,224,0.0,0.0,98,0.00,,,0.00,meteobridge,2013-09-12 09:11:00,
2013-09-12 05:16:00,70.0,69.1,29.97,SW,224,0.0,0.0,97,0.00,,,0.00,meteobridge,2013-09-12 09:16:00,
2013-09-12 05:21:00,70.0,69.4,29.97,SW,224,0.0,2.0,98,0.00,,,0.00,meteobridge,2013-09-12 09:21:00,
2013-09-12 05:26:00,70.0,69.4,29.97,SW,224,0.0,0.9,98,0.00,,,0.00,meteobridge,2013-09-12 09:26:00,
2013-09-12 05:31:00,69.8,69.3,29.96,SW,224,0.0,0.0,98,0.00,,,0.00,meteobridge,2013-09-12 09:31:00,
2013-09-12 05:37:00,69.8,69.3,29.96,SW,224,0.0,0.0,98,0.00,,,0.00,meteobridge,2013-09-12 09:37:00,
2013-09-12 05:42:00,69.8,69.3,29.96,SW,224,0.0,0.0,98,0.00,,,0.00,meteobridge,2013-09-12 09:42:00,
2013-09-12 05:47:00,69.8,68.9,29.97,SW,224,0.0,0.0,97,0.00,,,0.00,meteobridge,2013-09-12 09:47:00,
2013-09-12 05:52:00,69.8,68.9,29.97,SW,224,0.0,0.0,97,0.00,,,0.00,meteobridge,2013-09-12 09:52:00,
2013-09-12 05:57:00,69.6,68.7,29.97,SW,224,0.0,0.9,97,0.00,,,0.00,meteobridge,2013-09-12 09:57:00,
2013-09-12 06:02:00,69.6,68.7,29.97,SW,224,0.0,0.0,97,0.00,,,0.00,meteobridge,2013-09-12 10:02:00,
2013-09-12 06:08:00,69.6,68.7,29.97,SW,224,0.0,0.0,97,0.00,,,0.00,meteobridge,2013-09-12 10:08:00,
2013-09-12 06:13:00,69.4,68.5,29.97,SW,224,0.0,0.0,97,0.00,,,0.00,meteobridge,2013-09-12 10:13:00,
2013-09-12 06:18:00,69.4,68.5,29.97,SW,224,0.0,0.0,97,0.00,,,0.00,meteobridge,2013-09-12 10:18:00,
2013-09-12 06:23:00,69.4,68.5,29.97,SW,224,0.0,0.0,97,0.00,,,0.00,meteobridge,2013-09-12 10:23:00,
2013-09-12 06:28:00,69.4,68.5,29.97,SW,224,0.0,0.0,97,0.00,,,0.00,meteobridge,2013-09-12 10:28:00,
2013-09-12 06:33:00,69.4,68.5,29.97,SW,224,0.0,0.0,97,0.00,,,0.00,meteobridge,2013-09-12 10:33:00,
2013-09-12 06:39:00,69.4,68.5,29.97,SW,224,0.0,0.0,97,0.00,,,0.00,meteobridge,2013-09-12 10:39:00,
2013-09-12 06:44:00,69.3,68.4,29.96,SW,224,0.0,0.0,97,0.00,,,0.00,meteobridge,2013-09-12 10:44:00,
2013-09-12 06:49:00,69.1,68.2,29.96,SW,224,0.0,0.0,97,0.00,,,0.00,meteobridge,2013-09-12 10:49:00,
2013-09-12 06:54:00,69.1,68.2,29.96,SW,224,0.0,0.0,97,0.00,,,0.00,meteobridge,2013-09-12 10:54:00,
2013-09-12 06:59:00,69.1,68.2,29.97,SW,224,0.0,0.0,97,0.00,,,0.00,meteobridge,2013-09-12 10:59:00,
2013-09-12 07:05:00,68.9,68.4,29.97,SW,224,0.0,0.0,98,0.00,,,0.00,meteobridge,2013-09-12 11:05:00,
2013-09-12 07:10:00,68.9,68.0,29.97,SW,224,0.0,0.0,97,0.00,,,0.00,meteobridge,2013-09-12 11:10:00,
2013-09-12 07:15:00,68.9,68.4,29.98,SW,224,0.0,0.0,98,0.00,,,0.00,meteobridge,2013-09-12 11:15:00,
2013-09-12 07:20:00,68.9,68.0,29.98,SW,224,0.0,0.0,97,0.00,,,0.00,meteobridge,2013-09-12 11:20:00,
2013-09-12 07:25:00,68.9,68.4,29.98,SW,224,0.0,0.0,98,0.00,,,0.00,meteobridge,2013-09-12 11:25:00,
2013-09-12 07:30:00,68.9,68.4,29.98,SW,224,0.0,0.0,98,0.00,,,0.00,meteobridge,2013-09-12 11:30:00,
2013-09-12 07:35:00,68.9,68.0,29.98,SW,224,0.0,0.0,97,0.00,,,0.00,meteobridge,2013-09-12 11:35:00,
2013-09-12 07:41:00,68.9,68.4,29.98,SW,224,0.0,0.0,98,0.00,,,0.00,meteobridge,2013-09-12 11:41:00,
2013-09-12 07:46:00,68.9,68.4,29.98,SW,224,0.0,0.0,98,0.00,,,0.00,meteobridge,2013-09-12 11:46:00,
2013-09-12 07:51:00,69.1,68.5,29.98,SW,224,0.0,0.0,98,0.00,,,0.00,meteobridge,2013-09-12 11:51:00,
2013-09-12 07:56:00,69.3,68.7,29.98,SW,224,0.0,0.0,98,0.00,,,0.00,meteobridge,2013-09-12 11:56:00,
2013-09-12 08:02:00,69.6,69.1,29.98,SW,224,0.0,0.0,98,0.00,,,0.00,meteobridge,2013-09-12 12:02:00,
2013-09-12 08:07:00,70.0,69.4,29.98,SW,224,0.0,0.0,98,0.00,,,0.00,meteobridge,2013-09-12 12:07:00,
2013-09-12 08:12:00,70.2,69.3,29.98,SW,224,0.0,0.0,97,0.00,,,0.00,meteobridge,2013-09-12 12:12:00,
2013-09-12 08:17:00,70.3,69.4,29.98,SW,224,0.0,0.0,97,0.00,,,0.00,meteobridge,2013-09-12 12:17:00,
2013-09-12 08:22:00,70.3,69.4,29.98,SW,224,0.0,0.0,97,0.00,,,0.00,meteobridge,2013-09-12 12:22:00,
2013-09-12 08:27:00,70.9,70.0,29.98,SW,224,0.0,2.0,97,0.00,,,0.00,meteobridge,2013-09-12 12:27:00,
2013-09-12 08:32:00,70.9,69.6,29.98,SW,224,0.9,2.0,96,0.00,,,0.00,meteobridge,2013-09-12 12:32:00,
2013-09-12 08:38:00,71.2,70.0,29.98,SW,223,2.9,2.9,96,0.00,,,0.00,meteobridge,2013-09-12 12:38:00,
2013-09-12 08:43:00,71.4,70.0,29.98,SSE,160,0.0,4.9,95,0.00,,,0.00,meteobridge,2013-09-12 12:43:00,
2013-09-12 08:48:00,72.0,70.5,29.97,SSE,161,2.9,2.9,95,0.00,,,0.00,meteobridge,2013-09-12 12:48:00,
2013-09-12 08:53:00,72.3,70.2,29.97,SSE,161,0.0,0.9,93,0.00,,,0.00,meteobridge,2013-09-12 12:53:00,
2013-09-12 08:58:00,72.9,70.3,29.97,SSE,161,0.9,0.9,92,0.00,,,0.00,meteobridge,2013-09-12 12:58:00,
2013-09-12 09:03:00,73.2,70.2,29.97,SW,215,0.9,4.9,90,0.00,,,0.00,meteobridge,2013-09-12 13:03:00,
2013-09-12 09:08:00,73.8,70.0,29.97,SSW,208,2.0,4.9,88,0.00,,,0.00,meteobridge,2013-09-12 13:08:00,
2013-09-12 09:13:00,73.9,69.4,29.97,SW,229,0.0,6.0,86,0.00,,,0.00,meteobridge,2013-09-12 13:13:00,
2013-09-12 09:18:00,74.7,70.2,29.97,WSW,248,0.9,4.0,86,0.00,,,0.00,meteobridge,2013-09-12 13:18:00,
2013-09-12 09:23:00,75.4,69.8,29.97,SW,229,2.0,2.9,83,0.00,,,0.00,meteobridge,2013-09-12 13:23:00,
2013-09-12 09:28:00,75.6,69.6,29.97,SSW,199,2.0,4.9,82,0.00,,,0.00,meteobridge,2013-09-12 13:28:00,
2013-09-12 09:33:00,76.1,69.8,29.97,South,171,2.0,4.9,81,0.00,,,0.00,meteobridge,2013-09-12 13:33:00,
2013-09-12 09:39:00,76.3,69.6,29.97,South,174,0.0,2.0,80,0.00,,,0.00,meteobridge,2013-09-12 13:39:00,
2013-09-12 09:44:00,76.1,69.4,29.97,South,189,2.0,4.0,80,0.00,,,0.00,meteobridge,2013-09-12 13:44:00,
2013-09-12 09:49:00,76.1,69.8,29.96,SSW,212,2.9,2.9,81,0.00,,,0.00,meteobridge,2013-09-12 13:49:00,
2013-09-12 09:54:00,76.3,69.6,29.96,SSW,212,0.9,0.9,80,0.00,,,0.00,meteobridge,2013-09-12 13:54:00,
2013-09-12 09:59:00,76.5,69.8,29.96,WSW,241,0.0,4.9,80,0.00,,,0.00,meteobridge,2013-09-12 13:59:00,
2013-09-12 10:04:00,76.6,70.0,29.96,SSW,210,2.0,2.9,80,0.00,,,0.00,meteobridge,2013-09-12 14:04:00,
2013-09-12 10:09:00,77.4,70.7,29.96,SW,230,0.0,0.9,80,0.00,,,0.00,meteobridge,2013-09-12 14:09:00,
2013-09-12 10:14:00,77.9,70.5,29.96,SW,230,0.0,2.0,78,0.00,,,0.00,meteobridge,2013-09-12 14:14:00,
2013-09-12 10:19:00,78.3,70.5,29.96,South,178,0.9,6.9,77,0.00,,,0.00,meteobridge,2013-09-12 14:19:00,
2013-09-12 10:24:00,78.6,70.3,29.96,South,179,0.0,0.9,76,0.00,,,0.00,meteobridge,2013-09-12 14:24:00,
2013-09-12 10:29:00,78.6,70.0,29.96,SSE,148,0.0,6.0,75,0.00,,,0.00,meteobridge,2013-09-12 14:29:00,
2013-09-12 10:35:00,79.0,70.3,29.96,SE,133,0.0,8.1,75,0.00,,,0.00,meteobridge,2013-09-12 14:35:00,
2013-09-12 10:40:00,79.3,70.7,29.96,SW,220,0.9,8.1,75,0.00,,,0.00,meteobridge,2013-09-12 14:40:00,
2013-09-12 10:45:00,79.5,70.5,29.95,WSW,243,0.0,6.0,74,0.00,,,0.00,meteobridge,2013-09-12 14:45:00,
2013-09-12 10:50:00,80.2,70.9,29.95,SW,233,0.0,6.0,73,0.00,,,0.00,meteobridge,2013-09-12 14:50:00,
2013-09-12 10:55:00,80.8,70.9,29.95,WSW,244,2.9,6.9,72,0.00,,,0.00,meteobridge,2013-09-12 14:55:00,
2013-09-12 11:00:00,81.0,71.1,29.95,WSW,248,0.9,6.0,72,0.00,,,0.00,meteobridge,2013-09-12 15:00:00,
2013-09-12 11:05:00,81.1,70.9,29.95,SW,215,0.9,8.1,71,0.00,,,0.00,meteobridge,2013-09-12 15:05:00,
2013-09-12 11:10:00,81.9,71.6,29.95,SSW,199,0.9,6.9,71,0.00,,,0.00,meteobridge,2013-09-12 15:10:00,
2013-09-12 11:15:00,82.2,71.1,29.95,WNW,301,0.0,6.9,69,0.00,,,0.00,meteobridge,2013-09-12 15:15:00,
2013-09-12 11:21:00,82.6,71.4,29.95,SSW,206,0.9,4.9,69,0.00,,,0.00,meteobridge,2013-09-12 15:21:00,
2013-09-12 11:26:00,82.6,71.4,29.95,WSW,253,2.0,6.0,69,0.00,,,0.00,meteobridge,2013-09-12 15:26:00,
2013-09-12 11:31:00,82.2,71.4,29.94,NW,308,0.9,6.0,70,0.00,,,0.00,meteobridge,2013-09-12 15:31:00,
2013-09-12 11:36:00,82.4,71.2,29.94,West,268,2.9,6.9,69,0.00,,,0.00,meteobridge,2013-09-12 15:36:00,
2013-09-12 11:41:00,82.9,71.8,29.94,WSW,248,4.9,4.9,69,0.00,,,0.00,meteobridge,2013-09-12 15:41:00,
2013-09-12 11:46:00,83.8,71.8,29.94,SSW,209,2.9,4.9,67,0.00,,,0.00,meteobridge,2013-09-12 15:46:00,
2013-09-12 11:51:00,84.4,71.8,29.94,SSW,198,8.1,10.1,66,0.00,,,0.00,meteobridge,2013-09-12 15:51:00,
2013-09-12 11:56:00,83.8,72.1,29.94,West,261,0.0,6.9,68,0.00,,,0.00,meteobridge,2013-09-12 15:56:00,
2013-09-12 12:01:00,84.0,71.4,29.93,West,263,0.9,6.9,66,0.00,,,0.00,meteobridge,2013-09-12 16:01:00,
2013-09-12 12:06:00,84.4,71.2,29.93,South,175,2.9,6.0,65,0.00,,,0.00,meteobridge,2013-09-12 16:06:00,
2013-09-12 12:11:00,84.0,71.4,29.93,WSW,258,0.0,0.9,66,0.00,,,0.00,meteobridge,2013-09-12 16:11:00,
2013-09-12 12:16:00,84.4,72.1,29.93,WSW,258,0.9,2.9,67,0.00,,,0.00,meteobridge,2013-09-12 16:16:00,
2013-09-12 12:21:00,84.7,71.6,29.93,WSW,254,0.0,6.9,65,0.00,,,0.00,meteobridge,2013-09-12 16:21:00,
2013-09-12 12:26:00,85.1,71.6,29.93,NNW,342,0.0,10.1,64,0.00,,,0.00,meteobridge,2013-09-12 16:26:00,
2013-09-12 12:31:00,85.1,72.0,29.92,South,185,0.0,6.0,65,0.00,,,0.00,meteobridge,2013-09-12 16:31:00,
2013-09-12 12:37:00,85.1,72.0,29.92,NW,318,0.0,2.9,65,0.00,,,0.00,meteobridge,2013-09-12 16:37:00,
2013-09-12 12:42:00,85.6,72.5,29.92,West,271,0.9,6.0,65,0.00,,,0.00,meteobridge,2013-09-12 16:42:00,
2013-09-12 12:47:00,86.4,71.8,29.91,WSW,251,6.0,6.9,62,0.00,,,0.00,meteobridge,2013-09-12 16:47:00,
2013-09-12 12:52:00,85.8,71.8,29.91,WSW,239,2.0,4.9,63,0.00,,,0.00,meteobridge,2013-09-12 16:52:00,
2013-09-12 12:57:00,85.8,71.8,29.91,WNW,292,2.0,6.0,63,0.00,,,0.00,meteobridge,2013-09-12 16:57:00,
2013-09-12 13:02:00,85.6,72.5,29.91,West,277,0.0,0.9,65,0.00,,,0.00,meteobridge,2013-09-12 17:02:00,
2013-09-12 13:07:00,85.6,72.1,29.91,WNW,291,4.9,6.0,64,0.00,,,0.00,meteobridge,2013-09-12 17:07:00,
2013-09-12 13:12:00,85.5,72.0,29.91,West,263,0.0,0.9,64,0.00,,,0.00,meteobridge,2013-09-12 17:12:00,
2013-09-12 13:17:00,85.3,72.1,29.89,West,263,0.0,0.0,65,0.00,,,0.00,meteobridge,2013-09-12 17:17:00,
2013-09-12 13:22:00,85.3,72.1,29.89,West,280,0.0,2.9,65,0.00,,,0.00,meteobridge,2013-09-12 17:22:00,
2013-09-12 13:27:00,85.3,72.7,29.89,West,280,0.9,2.0,66,0.00,,,0.00,meteobridge,2013-09-12 17:27:00,
2013-09-12 13:32:00,85.1,72.0,29.88,West,275,0.9,4.9,65,0.00,,,0.00,meteobridge,2013-09-12 17:32:00,
2013-09-12 13:37:00,85.1,72.0,29.88,WSW,258,0.0,0.0,65,0.00,,,0.00,meteobridge,2013-09-12 17:37:00,
2013-09-12 13:42:00,85.1,72.0,29.88,WSW,258,0.0,0.0,65,0.00,,,0.00,meteobridge,2013-09-12 17:42:00,
2013-09-12 13:48:00,85.5,72.3,29.87,West,260,0.9,4.9,65,0.00,,,0.00,meteobridge,2013-09-12 17:48:00,
2013-09-12 13:53:00,85.6,72.5,29.87,SW,224,4.9,6.0,65,0.00,,,0.00,meteobridge,2013-09-12 17:53:00,
2013-09-12 13:58:00,86.5,72.9,29.87,West,278,0.9,6.0,64,0.00,,,0.00,meteobridge,2013-09-12 17:58:00,
2013-09-12 14:03:00,86.7,71.2,29.85,WSW,246,6.0,11.0,60,0.00,,,0.00,meteobridge,2013-09-12 18:03:00,
2013-09-12 14:08:00,86.4,71.8,29.85,SW,215,0.9,2.9,62,0.00,,,0.00,meteobridge,2013-09-12 18:08:00,
2013-09-12 14:13:00,85.8,71.2,29.85,SW,226,6.0,6.9,62,0.00,,,0.00,meteobridge,2013-09-12 18:13:00,
2013-09-12 14:18:00,85.3,70.3,29.85,West,263,2.9,4.0,61,0.00,,,0.00,meteobridge,2013-09-12 18:18:00,
2013-09-12 14:23:00,84.9,70.0,29.85,West,274,2.9,6.9,61,0.00,,,0.00,meteobridge,2013-09-12 18:23:00,
2013-09-12 14:28:00,84.0,69.6,29.85,West,272,12.1,21.0,62,0.00,,,0.00,meteobridge,2013-09-12 18:28:00,
2013-09-12 14:33:00,80.1,68.5,29.86,NW,305,10.1,17.9,68,0.00,,,0.00,meteobridge,2013-09-12 18:33:00,
2013-09-12 14:38:00,75.7,69.1,29.86,NW,322,10.1,17.9,80,0.10,,,0.10,meteobridge,2013-09-12 18:38:00,
2013-09-12 14:43:00,72.9,68.7,29.86,West,270,4.9,11.0,87,0.28,,,0.28,meteobridge,2013-09-12 18:43:00,
2013-09-12 14:48:00,71.8,69.1,29.93,South,184,4.0,4.9,91,0.33,,,0.33,meteobridge,2013-09-12 18:48:00,
2013-09-12 14:53:00,71.4,68.9,29.93,SSW,209,0.0,0.0,92,0.39,,,0.39,meteobridge,2013-09-12 18:53:00,
2013-09-12 14:58:00,71.1,68.9,29.93,SW,232,0.0,2.9,93,0.41,,,0.41,meteobridge,2013-09-12 18:58:00,
2013-09-12 15:03:00,70.9,68.7,29.89,WSW,240,0.0,0.0,93,0.43,,,0.43,meteobridge,2013-09-12 19:03:00,
2013-09-12 15:08:00,70.9,69.1,29.89,WSW,240,0.0,0.0,94,0.44,,,0.44,meteobridge,2013-09-12 19:08:00,
2013-09-12 15:13:00,70.9,69.4,29.89,WSW,240,0.0,0.0,95,0.44,,,0.44,meteobridge,2013-09-12 19:13:00,
2013-09-12 15:19:00,71.1,69.6,29.88,WSW,240,0.9,0.9,95,0.44,,,0.44,meteobridge,2013-09-12 19:19:00,
2013-09-12 15:24:00,71.1,69.6,29.88,WSW,240,0.0,0.0,95,0.44,,,0.44,meteobridge,2013-09-12 19:24:00,
2013-09-12 15:29:00,71.1,69.6,29.88,WSW,243,0.0,2.9,95,0.46,,,0.46,meteobridge,2013-09-12 19:29:00,
2013-09-12 15:34:00,70.9,69.6,29.87,WSW,243,0.0,0.9,96,0.47,,,0.47,meteobridge,2013-09-12 19:34:00,
2013-09-12 15:45:00,71.1,69.8,29.85,WSW,244,0.0,0.9,96,0.18,,,0.48,meteobridge,2013-09-12 19:45:00,
2013-09-12 15:50:00,71.2,70.0,29.85,SW,219,0.0,2.9,96,0.10,,,0.48,meteobridge,2013-09-12 19:50:00,
2013-09-12 15:55:00,71.2,70.0,29.85,SW,222,0.0,0.9,96,0.09,,,0.48,meteobridge,2013-09-12 19:55:00,
2013-09-12 16:00:00,71.2,70.0,29.85,SW,222,0.9,4.0,96,0.05,,,0.48,meteobridge,2013-09-12 20:00:00,
2013-09-12 16:06:00,71.2,70.0,29.85,South,182,0.0,0.9,96,0.04,,,0.48,meteobridge,2013-09-12 20:06:00,
2013-09-12 16:11:00,71.4,70.2,29.85,South,182,0.0,2.0,96,0.04,,,0.48,meteobridge,2013-09-12 20:11:00,
2013-09-12 16:16:00,71.8,70.5,29.83,South,178,0.0,0.9,96,0.04,,,0.48,meteobridge,2013-09-12 20:16:00,
2013-09-12 16:21:00,72.1,70.9,29.83,South,176,0.9,2.9,96,0.04,,,0.48,meteobridge,2013-09-12 20:21:00,
2013-09-12 16:26:00,72.3,71.1,29.83,South,176,0.0,0.9,96,0.04,,,0.48,meteobridge,2013-09-12 20:26:00,
2013-09-12 16:32:00,72.5,71.2,29.83,SSE,158,0.0,0.9,96,0.01,,,0.48,meteobridge,2013-09-12 20:32:00,
2013-09-12 16:37:00,73.2,72.0,29.83,SSE,158,0.0,0.9,96,0.00,,,0.48,meteobridge,2013-09-12 20:37:00,
2013-09-12 16:42:00,73.0,71.6,29.83,SSE,158,0.0,0.0,95,0.00,,,0.48,meteobridge,2013-09-12 20:42:00,
2013-09-12 16:47:00,73.0,71.6,29.84,SSE,158,2.9,2.9,95,0.00,,,0.48,meteobridge,2013-09-12 20:47:00,
2013-09-12 16:52:00,73.0,71.2,29.84,SSE,158,0.0,0.0,94,0.00,,,0.48,meteobridge,2013-09-12 20:52:00,
2013-09-12 16:57:00,73.2,71.4,29.84,SSE,162,0.0,2.9,94,0.00,,,0.48,meteobridge,2013-09-12 20:57:00,
2013-09-12 17:02:00,73.2,71.1,29.85,SSE,158,2.0,2.9,93,0.00,,,0.48,meteobridge,2013-09-12 21:02:00,
2013-09-12 17:07:00,73.6,71.4,29.85,SSE,158,0.0,0.0,93,0.00,,,0.48,meteobridge,2013-09-12 21:07:00,
2013-09-12 17:12:00,73.9,71.8,29.85,SSE,158,0.0,0.9,93,0.00,,,0.48,meteobridge,2013-09-12 21:12:00,
2013-09-12 17:17:00,74.1,71.6,29.85,SSE,158,0.9,0.9,92,0.00,,,0.48,meteobridge,2013-09-12 21:17:00,
2013-09-12 17:22:00,74.5,71.6,29.85,South,171,0.9,2.9,91,0.00,,,0.48,meteobridge,2013-09-12 21:22:00,
2013-09-12 17:27:00,74.7,71.8,29.85,SSW,195,0.0,2.0,91,0.00,,,0.48,meteobridge,2013-09-12 21:27:00,
2013-09-12 17:33:00,75.0,71.6,29.85,South,188,0.0,4.9,89,0.00,,,0.48,meteobridge,2013-09-12 21:33:00,
2013-09-12 17:38:00,75.4,71.6,29.85,South,188,0.0,2.0,88,0.00,,,0.48,meteobridge,2013-09-12 21:38:00,
2013-09-12 17:43:00,75.0,70.9,29.85,South,181,0.9,4.0,87,0.00,,,0.48,meteobridge,2013-09-12 21:43:00,
2013-09-12 17:48:00,75.0,70.9,29.85,South,181,0.0,2.0,87,0.00,,,0.48,meteobridge,2013-09-12 21:48:00,
2013-09-12 17:53:00,75.4,71.2,29.85,South,181,0.0,0.0,87,0.00,,,0.48,meteobridge,2013-09-12 21:53:00,
2013-09-12 18:03:00,75.4,71.2,29.85,South,181,0.0,0.0,87,0.00,,,0.48,meteobridge,2013-09-12 22:03:00,
2013-09-12 18:09:00,75.7,71.6,29.85,South,181,0.0,0.0,87,0.00,,,0.48,meteobridge,2013-09-12 22:09:00,
2013-09-12 18:14:00,75.6,71.4,29.85,South,181,0.0,0.0,87,0.00,,,0.48,meteobridge,2013-09-12 22:14:00,
2013-09-12 18:19:00,75.4,71.2,29.85,South,181,0.0,0.9,87,0.00,,,0.48,meteobridge,2013-09-12 22:19:00,
2013-09-12 18:24:00,75.4,71.2,29.85,South,181,0.0,0.0,87,0.00,,,0.48,meteobridge,2013-09-12 22:24:00,
2013-09-12 18:29:00,75.4,71.2,29.85,South,181,0.0,0.0,87,0.00,,,0.48,meteobridge,2013-09-12 22:29:00,
2013-09-12 18:34:00,75.4,71.6,29.85,South,181,0.0,0.0,88,0.00,,,0.48,meteobridge,2013-09-12 22:34:00,
2013-09-12 18:39:00,75.0,71.2,29.85,South,179,0.0,2.9,88,0.00,,,0.48,meteobridge,2013-09-12 22:39:00,
2013-09-12 18:44:00,74.8,71.4,29.85,South,181,0.9,2.9,89,0.00,,,0.48,meteobridge,2013-09-12 22:44:00,
2013-09-12 18:50:00,74.8,71.4,29.85,South,181,0.0,0.9,89,0.00,,,0.48,meteobridge,2013-09-12 22:50:00,
2013-09-12 18:55:00,74.7,70.9,29.85,South,182,0.0,2.9,88,0.00,,,0.48,meteobridge,2013-09-12 22:55:00,
2013-09-12 19:05:00,74.7,70.9,29.85,South,182,0.0,0.9,88,0.00,,,0.48,meteobridge,2013-09-12 23:05:00,
2013-09-12 19:10:00,74.1,70.3,29.85,South,182,0.0,0.0,88,0.00,,,0.48,meteobridge,2013-09-12 23:10:00,
2013-09-12 19:16:00,74.1,70.7,29.84,South,182,0.0,0.0,89,0.00,,,0.48,meteobridge,2013-09-12 23:16:00,
2013-09-12 19:21:00,73.9,70.5,29.84,South,182,0.0,0.0,89,0.00,,,0.48,meteobridge,2013-09-12 23:21:00,
2013-09-12 19:26:00,73.9,70.9,29.84,South,182,0.0,0.0,90,0.00,,,0.48,meteobridge,2013-09-12 23:26:00,
2013-09-12 19:31:00,73.8,70.7,29.84,South,182,0.0,2.0,90,0.00,,,0.48,meteobridge,2013-09-12 23:31:00,
2013-09-12 19:36:00,73.2,70.2,29.84,SSW,198,0.0,0.0,90,0.00,,,0.48,meteobridge,2013-09-12 23:36:00,
2013-09-12 19:41:00,73.2,70.5,29.84,SSW,198,0.9,2.9,91,0.00,,,0.48,meteobridge,2013-09-12 23:41:00,
2013-09-12 19:46:00,72.9,70.2,29.84,SSW,198,0.0,2.0,91,0.00,,,0.48,meteobridge,2013-09-12 23:46:00,
2013-09-12 19:52:00,72.7,70.2,29.84,SSW,198,0.0,0.0,92,0.00,,,0.48,meteobridge,2013-09-12 23:52:00,
2013-09-12 19:57:00,72.3,69.8,29.84,SSW,198,0.0,0.9,92,0.00,,,0.48,meteobridge,2013-09-12 23:57:00,
2013-09-12 20:02:00,72.1,70.0,29.83,SSW,198,0.0,0.9,93,0.00,,,0.48,meteobridge,2013-09-13 00:02:00,
2013-09-12 20:07:00,72.0,69.8,29.83,SSW,198,0.0,0.0,93,0.00,,,0.48,meteobridge,2013-09-13 00:07:00,
2013-09-12 20:12:00,71.8,69.6,29.83,SSW,198,0.0,0.0,93,0.00,,,0.48,meteobridge,2013-09-13 00:12:00,
2013-09-12 20:17:00,71.6,69.8,29.83,SSW,198,0.0,0.0,94,0.00,,,0.48,meteobridge,2013-09-13 00:17:00,
2013-09-12 20:23:00,71.4,69.6,29.83,SSW,198,0.0,0.0,94,0.00,,,0.48,meteobridge,2013-09-13 00:23:00,
2013-09-12 20:28:00,71.2,69.8,29.83,SSW,198,0.0,0.0,95,0.00,,,0.48,meteobridge,2013-09-13 00:28:00,
2013-09-12 20:33:00,71.1,69.6,29.83,SSW,198,0.0,0.0,95,0.00,,,0.48,meteobridge,2013-09-13 00:33:00,
2013-09-12 20:38:00,70.9,69.4,29.83,SSW,198,0.9,0.9,95,0.00,,,0.48,meteobridge,2013-09-13 00:38:00,
2013-09-12 20:43:00,70.9,69.4,29.83,SSW,198,0.0,0.0,95,0.00,,,0.48,meteobridge,2013-09-13 00:43:00,
2013-09-12 20:49:00,70.9,69.4,29.84,SSW,198,0.0,0.9,95,0.00,,,0.48,meteobridge,2013-09-13 00:49:00,
2013-09-12 20:54:00,70.5,69.3,29.84,SSW,198,0.0,0.0,96,0.00,,,0.48,meteobridge,2013-09-13 00:54:00,
2013-09-12 20:59:00,70.5,69.3,29.84,SSW,198,0.0,0.9,96,0.00,,,0.48,meteobridge,2013-09-13 00:59:00,
2013-09-12 21:04:00,70.5,69.3,29.84,SSW,198,0.0,0.0,96,0.00,,,0.48,meteobridge,2013-09-13 01:04:00,
2013-09-12 21:09:00,70.3,69.1,29.84,SSW,198,0.0,0.0,96,0.00,,,0.48,meteobridge,2013-09-13 01:09:00,
2013-09-12 21:14:00,70.3,69.1,29.84,SSW,198,0.0,0.0,96,0.00,,,0.48,meteobridge,2013-09-13 01:14:00,
2013-09-12 21:20:00,70.3,69.4,29.84,SSW,198,0.0,0.0,97,0.00,,,0.48,meteobridge,2013-09-13 01:20:00,
2013-09-12 21:25:00,70.3,69.4,29.84,SSW,198,0.0,0.0,97,0.00,,,0.48,meteobridge,2013-09-13 01:25:00,
2013-09-12 21:30:00,70.2,69.3,29.83,SSW,198,0.0,0.0,97,0.00,,,0.48,meteobridge,2013-09-13 01:30:00,
2013-09-12 21:35:00,70.0,69.1,29.83,SSW,198,0.0,0.0,97,0.00,,,0.48,meteobridge,2013-09-13 01:35:00,
2013-09-12 21:40:00,69.8,68.9,29.83,SSW,198,0.0,0.0,97,0.00,,,0.48,meteobridge,2013-09-13 01:40:00,
2013-09-12 21:46:00,69.6,68.7,29.84,SSW,198,0.0,0.0,97,0.00,,,0.48,meteobridge,2013-09-13 01:46:00,
2013-09-12 21:51:00,69.6,68.7,29.84,SSW,198,0.0,0.0,97,0.00,,,0.48,meteobridge,2013-09-13 01:51:00,
2013-09-12 21:56:00,69.6,68.7,29.84,SSW,198,0.0,0.0,97,0.00,,,0.48,meteobridge,2013-09-13 01:56:00,
2013-09-12 22:01:00,69.6,68.7,29.84,SSW,198,0.0,0.9,97,0.00,,,0.48,meteobridge,2013-09-13 02:01:00,
2013-09-12 22:06:00,69.4,68.5,29.84,SSW,198,0.0,0.0,97,0.00,,,0.48,meteobridge,2013-09-13 02:06:00,
2013-09-12 22:11:00,69.4,68.5,29.84,SSW,198,0.0,0.0,97,0.00,,,0.48,meteobridge,2013-09-13 02:11:00,
2013-09-12 22:16:00,69.1,68.2,29.83,SSW,198,0.0,0.0,97,0.00,,,0.48,meteobridge,2013-09-13 02:16:00,
2013-09-12 22:22:00,68.9,68.0,29.83,SSW,198,0.0,0.0,97,0.00,,,0.48,meteobridge,2013-09-13 02:22:00,
2013-09-12 22:27:00,68.7,67.8,29.83,SSW,198,0.0,0.0,97,0.00,,,0.48,meteobridge,2013-09-13 02:27:00,
2013-09-12 22:32:00,68.7,67.8,29.83,SSW,198,0.0,0.0,97,0.00,,,0.48,meteobridge,2013-09-13 02:32:00,
2013-09-12 22:38:00,68.7,67.8,29.83,SSW,198,0.0,0.0,97,0.00,,,0.48,meteobridge,2013-09-13 02:38:00,
2013-09-12 22:43:00,68.4,67.5,29.83,SSW,198,0.0,0.0,97,0.00,,,0.48,meteobridge,2013-09-13 02:43:00,
2013-09-12 22:48:00,68.4,67.5,29.83,SSW,198,0.0,0.0,97,0.00,,,0.48,meteobridge,2013-09-13 02:48:00,
2013-09-12 22:53:00,68.2,67.3,29.83,SSW,198,0.0,0.0,97,0.00,,,0.48,meteobridge,2013-09-13 02:53:00,
2013-09-12 22:58:00,67.8,67.3,29.83,SSW,198,0.0,0.9,98,0.00,,,0.48,meteobridge,2013-09-13 02:58:00,
2013-09-12 23:03:00,67.8,67.3,29.83,SSW,198,0.0,0.0,98,0.00,,,0.48,meteobridge,2013-09-13 03:03:00,
2013-09-12 23:08:00,67.8,67.3,29.83,SSW,198,0.0,0.0,98,0.00,,,0.48,meteobridge,2013-09-13 03:08:00,
2013-09-12 23:14:00,67.8,67.3,29.83,SSW,198,0.0,0.0,98,0.00,,,0.48,meteobridge,2013-09-13 03:14:00,
2013-09-12 23:19:00,67.6,67.1,29.82,SSW,198,0.0,0.9,98,0.00,,,0.48,meteobridge,2013-09-13 03:19:00,
2013-09-12 23:24:00,67.6,67.1,29.82,SSW,198,0.0,0.0,98,0.00,,,0.48,meteobridge,2013-09-13 03:24:00,
2013-09-12 23:29:00,67.8,67.3,29.82,SSW,198,0.0,0.0,98,0.00,,,0.48,meteobridge,2013-09-13 03:29:00,
2013-09-12 23:35:00,67.6,67.1,29.82,SSW,198,0.0,0.9,98,0.00,,,0.48,meteobridge,2013-09-13 03:35:00,
2013-09-12 23:40:00,67.6,67.1,29.82,SSW,196,0.0,0.0,98,0.00,,,0.48,meteobridge,2013-09-13 03:40:00,
2013-09-12 23:45:00,67.5,66.9,29.82,SSW,196,0.0,0.0,98,0.00,,,0.48,meteobridge,2013-09-13 03:45:00,
2013-09-12 23:50:00,67.6,67.1,29.82,SSW,198,0.0,0.0,98,0.00,,,0.48,meteobridge,2013-09-13 03:50:00,
2013-09-12 23:55:00,67.8,67.3,29.82,SSW,196,0.0,0.0,98,0.00,,,0.48,meteobridge,2013-09-13 03:55:00,